Weather History for KLAW - August, 2013

Change the Weather History Date:

Monday, August 19, 2013

  Actual Average Record
Temperature  
Mean Temperature 80 °F -  
Max Temperature 93 °F 96 °F 108 °F (2011)
Min Temperature 68 °F 70 °F 56 °F (1950)
Cooling Degree Days 16    
Growing Degree Days 30 (Base 50)    
Moisture  
Dew Point 62 °F    
Average Humidity 57    
Maximum Humidity 81    
Minimum Humidity 34    
Precipitation  
Precipitation 0.00 in - - ()
Sea Level Pressure  
Sea Level Pressure 30.00 in    
Wind  
Wind Speed 7 mph (SE)    
Max Wind Speed 16 mph    
Max Gust Speed 22 mph    
Visibility 10 miles    
Events      
Averages and records for this station are not official NWS values.
T = Trace of Precipitation, MM = Missing Value Source: NWS Daily Summary

Daily Weather History Graph

Daily Weather History Graph

Search for Another Location

Airport or City:

Trip Planner

Search our weather history database for the weather conditions in past years. The results will help you decide how hot, cold, wet, or windy it might be!

Date:

Astronomy

Aug. 19, 2013 Rise Set
Actual Time 6:57 AM CDT 8:16 PM CDT
Civil Twilight 6:31 AM CDT 8:42 PM CDT
Nautical Twilight 5:59 AM CDT 9:13 PM CDT
Astronomical Twilight 5:26 AM CDT 9:46 PM CDT
Moon 7:08 PM CDT (8/19) 5:19 AM CDT (8/19)
Length of Visible Light 14h 11m
Length of Day
13h 18m
Waxing Gibbous, 97% of the Moon is Illuminated
Aug 19
Waxing Gibbous
Aug 20
Full
Aug 28
Last Quarter
Sep 5
New
Sep 12
First Quarter

Hourly Weather History & Observations

Time (CDT) Temp. Heat Index Dew Point Humidity Pressure Visibility Wind Dir Wind Speed Gust Speed Precip Events Conditions
12:53 AM 72.0 °F - 63.0 °F 73% 30.03 in 10.0 mi East 5.8 mph - N/A   Clear
1:53 AM 71.1 °F - 62.1 °F 73% 30.03 in 10.0 mi East 3.5 mph - N/A   Clear
2:53 AM 70.0 °F - 62.1 °F 76% 30.01 in 10.0 mi East 3.5 mph - N/A   Clear
3:53 AM 69.1 °F - 62.1 °F 78% 30.01 in 10.0 mi East 4.6 mph - N/A   Clear
4:53 AM 69.1 °F - 62.1 °F 78% 29.99 in 10.0 mi SE 4.6 mph - N/A   Clear
5:53 AM 69.1 °F - 62.1 °F 78% 30.01 in 10.0 mi Calm Calm - N/A   Clear
6:53 AM 68.0 °F - 62.1 °F 81% 30.03 in 10.0 mi East 4.6 mph - N/A   Scattered Clouds
7:53 AM 70.0 °F - 62.1 °F 76% 30.03 in 10.0 mi ESE 8.1 mph - N/A   Scattered Clouds
8:53 AM 73.0 °F - 63.0 °F 71% 30.04 in 10.0 mi SE 11.5 mph - N/A   Scattered Clouds
9:53 AM 77.0 °F - 64.0 °F 64% 30.06 in 10.0 mi SSE 9.2 mph - N/A   Partly Cloudy
10:53 AM 81.0 °F 82.5 °F 64.0 °F 56% 30.05 in 10.0 mi SE 9.2 mph - N/A   Clear
11:53 AM 84.9 °F 85.9 °F 63.0 °F 48% 30.03 in 10.0 mi SSE 16.1 mph - N/A   Clear
12:53 PM 88.0 °F 88.4 °F 62.1 °F 42% 30.02 in 10.0 mi SSE 15.0 mph 21.9 mph N/A   Clear
1:53 PM 90.0 °F 90.0 °F 61.0 °F 38% 30.01 in 10.0 mi SSE 16.1 mph - N/A   Clear
2:53 PM 91.9 °F 91.8 °F 61.0 °F 35% 29.99 in 10.0 mi SSE 12.7 mph 20.7 mph N/A   Clear
3:53 PM 93.0 °F 93.0 °F 61.0 °F 34% 29.97 in 10.0 mi ESE 10.4 mph 18.4 mph N/A   Clear
4:53 PM 93.0 °F 93.0 °F 61.0 °F 34% 29.95 in 10.0 mi SSE 9.2 mph - N/A   Clear
5:53 PM 91.9 °F 91.5 °F 60.1 °F 34% 29.93 in 10.0 mi SSE 9.2 mph - N/A   Clear
6:53 PM 91.0 °F 90.5 °F 60.1 °F 35% 29.92 in 10.0 mi SE 8.1 mph - N/A   Clear
7:53 PM 88.0 °F 88.4 °F 62.1 °F 42% 29.93 in 10.0 mi ESE 5.8 mph - N/A   Clear
8:53 PM 82.9 °F 84.0 °F 63.0 °F 51% 29.94 in 10.0 mi SE 5.8 mph - N/A   Clear
9:53 PM 81.0 °F 82.2 °F 63.0 °F 54% 29.96 in 10.0 mi SE 5.8 mph - N/A   Clear
10:53 PM 77.0 °F - 63.0 °F 62% 29.97 in 10.0 mi ESE 5.8 mph - N/A   Clear
11:53 PM 75.9 °F - 63.0 °F 64% 29.97 in 10.0 mi ESE 5.8 mph - N/A   Clear